This demonstration page uses our WeatherBlox Daily Observations layout. Learn more.

Left ArrowRight Arrow

38.80484, -77.04692

Hourly Observations for August 28, 2022

Temp ( °F °C ) Dew Point ( °F °C ) Humidity (%) Winds ( mph kmh ) Pressure ( in mb ) Visibility ( mi km ) Precip ( " mm )
12:52 am 00:52 Mostly Cloudy 80 26.7 69 20.6 69 69 Calm 30.05 1018 10 16 0.00 0.00
1:52 am 01:52 Mostly Cloudy 78 25.6 69 20.6 74 74 E 3 6 30.04 1017 10 16 0.00 0.00
2:52 am 02:52 Partly Cloudy 77 25 69 20.6 77 77 SSE 5 7 30.05 1018 10 16 0.00 0.00
3:52 am 03:52 Partly Cloudy 76 24.4 71 21.7 85 85 Calm 30.04 1017 10 16 0.00 0.00
4:52 am 04:52 Mostly Clear 77 25 71 21.7 82 82 Calm 30.05 1018 10 16 0.00 0.00
5:52 am 05:52 Mostly Clear 74 23.3 71 21.7 91 91 N 5 7 30.06 1018 10 16 0.00 0.00
6:52 am 06:52 Mostly Sunny 74 23.3 70 21.1 87 87 NNE 6 9 30.09 1019 10 16 0.00 0.00
7:52 am 07:52 Mostly Sunny 76 24.4 70 21.1 82 82 NE 8 13 30.11 1020 10 16 0.00 0.00
8:52 am 08:52 Sunny 79 26.1 72 22.2 79 79 NE 8 13 30.12 1020 10 16 0.00 0.00
9:52 am 09:52 Partly Cloudy 82 27.8 73 22.8 74 74 E 8 13 30.12 1020 10 16 0.00 0.00
9:59 am 09:59 Mostly Cloudy 82 27.8 73 22.8 74 74 E 9 15 30.13 1020 10 16 0.00 0.00
10:52 am 10:52 Cloudy 84 28.9 73 22.8 70 70 E 6 9 30.13 1020 10 16 0.00 0.00
11:52 am 11:52 Mostly Cloudy 84 28.9 71 21.7 65 65 E 5 7 30.13 1020 10 16 0.00 0.00
12:30 pm 12:30 Mostly Cloudy 86 30 71 21.7 61 61 VRB 6 9 30.12 1020 10 16 0.00 0.00
12:52 pm 12:52 Mostly Cloudy 88 31.1 72 22.2 59 59 SE 6 9 30.12 1020 10 16 0.00 0.00
1:52 pm 13:52 Mostly Cloudy 87 30.6 71 21.7 59 59 ENE 3 6 30.11 1020 10 16 0.00 0.00
2:52 pm 14:52 Mostly Cloudy 89 31.7 70 21.1 54 54 SSE 3 6 30.09 1019 9 14 0.00 0.00
3:52 pm 15:52 Partly Cloudy 90 32.2 71 21.7 54 54 SE 5 7 30.07 1018 10 16 0.00 0.00
4:52 pm 16:52 Partly Cloudy 91 32.8 70 21.1 50 50 S 9 15 30.06 1018 10 16 0.00 0.00
5:52 pm 17:52 Partly Cloudy 90 32.2 69 20.6 50 50 S 7 11 30.05 1018 10 16 0.00 0.00
6:52 pm 18:52 Partly Cloudy 88 31.1 72 22.2 59 59 S 8 13 30.05 1018 10 16 0.00 0.00
7:52 pm 19:52 Partly Cloudy 85 29.4 71 21.7 63 63 SSE 8 13 30.05 1018 10 16 0.00 0.00
8:52 pm 20:52 Partly Cloudy 83 28.3 72 22.2 70 70 SSE 7 11 30.07 1018 10 16 0.00 0.00
9:52 pm 21:52 Partly Cloudy 81 27.2 73 22.8 77 77 SSE 7 11 30.08 1019 10 16 0.00 0.00
10:52 pm 22:52 Mostly Clear 80 26.7 72 22.2 76 76 S 8 13 30.09 1019 10 16 0.00 0.00
11:52 pm 23:52 Clear 79 26.1 72 22.2 79 79 SSE 8 13 30.11 1020 10 16 0.00 0.00

Powered by AerisWeather